Location: Arnolds Mill
(42.3415°N, 73.5951°W)
Time: 09:24:13
(UTC+00:00)

Oscar 11 - Visible Passes

Search period start: 08 May 2026 00:00
Search period end: 18 May 2026 00:00
Orbit: 591 x 600 km, 97.8° (Epoch: 8 May)

Date Brightness Start Highest point End Pass type
(mag) Time Alt. Az. Time Alt. Az. Time Alt. Az.
8 May 9.6 07:22:57 10° NE 07:25:29 15° E 07:27:59 10° SE visible
8 May 7.4 08:57:17 10° N 09:01:21 46° WNW 09:05:23 10° SW visible
9 May 9.3 07:32:15 10° NE 07:35:21 19° E 07:38:25 10° SE visible
9 May 7.7 09:07:11 10° N 09:11:05 36° WNW 09:14:57 10° SW visible
10 May 9.0 07:41:42 10° NE 07:45:12 25° E 07:48:40 10° SSE visible
11 May 8.6 07:51:15 10° NNE 07:55:02 31° E 07:58:48 10° SSE visible
12 May 8.2 08:00:51 10° NNE 08:04:51 40° E 08:08:49 10° SSE visible
13 May 7.7 08:10:31 10° NNE 08:14:40 51° E 08:18:46 10° S visible
14 May 7.3 08:20:13 10° NNE 08:24:27 67° ESE 08:28:39 10° S visible
15 May 7.0 08:29:57 10° NNE 08:34:13 87° E 08:38:26 10° SSW visible
16 May 7.0 08:39:44 10° N 08:43:58 73° WNW 08:48:10 10° SSW visible
17 May 9.7 07:15:53 10° ENE 07:17:45 13° E 07:19:36 10° ESE visible
17 May 7.2 08:49:33 10° N 08:53:43 56° WNW 08:57:51 10° SSW visible
